Vorticity
6 6 6 6 6 6 6 6 6 7 7 7 7 7 8 8 8 8 8 8 8 7 7 7 7 7 7 7 7 7 7 7 7 7 7 7 7 7 7 8 8 8 8 8 8 9 9 9 9 9 9 9 9 8 8 8 8 8 8 8 8 8 8 8 8 8 8 8 8 8 7 7 7 6 5 5 5 4 4 4 4 4 4 4 4 5 5 5 5 5 5 6 6 6 6 7 7 7 7 7 7 6 6
6 6 6 6 6 6 6 7 7 7 7 8 8 8 8 8 7 7 7 7 7 7 6 6 6 6 6 6 6 6 6 6 6 6 6 6 6 6 6 6 7 7 7 7 7 7 7 7 7 7 7 7 7 7 7 7 7 7 7 7 7 7 8 8 8 8 9 9 9 9 9 9 9 8 8 7 7 6 6 5 5 4 4 4 4 4 4 5 5 5 5 5 5 6 6 6 6 7 7 7 7 7 7
6 6 6 7 7 7 7 7 7 7 8 7 7 7 7 7 7 7 6 6 6 5 5 5 5 5 5 5 5 5 5 5 5 5 5 5 6 6 6 6 6 6 6 6 6 6 6 6 6 6 6 6 6 6 6 6 6 6 6 7 7 7 7 7 7 7 8 8 8 9 9 9 10 10 10 9 9 9 9 8 7 6 6 5 5 5 4 4 4 5 5 5 5 5 5 5 6 6 6 6 7 7 7
7 7 7 7 7 7 7 7 7 7 7 7 7 7 6 6 6 6 5 5 5 5 5 5 4 4 4 4 5 5 5 5 5 5 5 5 5 5 5 5 5 5 5 5 5 5 5 6 6 6 6 6 6 6 6 6 6 6 6 6 6 6 6 6 6 6 6 7 7 7 8 8 9 9 10 10 10 10 10 10 10 9 9 8 8 7 6 6 5 5 5 4 5 5 5 5 5 5 6 6 6 6 6
7 7 7 7 7 7 7 7 7 7 6 6 6 6 5 5 5 5 5 4 4 4 4 4 4 4 4 4 4 4 4 4 4 4 4 5 5 5 5 5 5 5 5 5 5 5 5 5 5 5 6 6 6 6 6 6 6 6 6 6 6 6 6 6 6 6 6 6 6 6 7 7 7 8 8 9 9 10 10 10 10 11 10 10 10 10 9 8 7 6 6 5 5 5 5 5 5 5 5 5 5 6 6
7 8 8 8 7 7 7 7 6 6 6 5 5 5 5 4 4 4 4 4 4 4 4 4 4 4 4 4 4 4 4 4 4 4 4 4 4 4 4 4 4 5 5 5 5 5 5 5 5 5 5 5 5 5 6 5 5 6 6 6 6 6 6 6 6 6 6 6 6 6 6 6 7 7 8 8 8 9 9 9 10 10 10 11 11 11 10 10 9 9 8 7 7 6 6 5 5 5 5 5 5 5 5
8 8 8 7 7 7 6 6 6 5 5 5 4 4 4 4 4 4 4 3 3 3 3 3 3 3 3 3 3 3 3 3 3 3 3 3 3 3 4 4 4 4 4 4 4 4 4 4 4 4 5 5 5 5 5 5 5 5 5 6 6 6 6 6 6 6 6 6 6 6 6 6 7 7 7 8 8 8 9 9 9 9 10 10 10 10 10 10 10 10 10 9 9 8 8 7 7 6 6 5 5 5 5
8 7 7 7 7 6 6 5 5 5 4 4 4 4 4 3 3 3 3 3 3 3 3 3 3 3 3 3 3 3 3 3 2 3 3 3 3 3 3 3 3 3 3 3 3 4 4 4 4 4 4 4 4 4 4 4 4 4 4 5 5 5 6 6 6 6 6 6 6 6 6 6 6 6 6 7 7 8 8 9 9 9 9 10 10 10 10 10 10 10 10 10 10 10 9 9 8 8 7 7 6 6 6
7 7 7 6 6 6 5 5 4 4 4 4 4 3 3 3 3 3 3 3 3 2 2 2 2 2 2 2 2 2 2 2 2 2 2 2 3 3 3 3 3 3 3 3 3 3 3 3 3 3 3 3 3 3 3 3 3 3 3 4 4 4 5 5 5 5 5 5 6 6 6 5 5 5 5 6 6 6 7 7 8 8 9 9 10 10 10 10 10 10 10 10 9 9 9 9 9 9 9 8 8 7 7
7 7 6 6 5 5 5 4 4 4 3 3 3 3 3 3 3 3 3 2 2 2 2 2 2 2 2 2 2 2 2 2 2 2 2 3 3 3 3 3 3 3 3 3 3 3 3 3 3 3 2 2 2 2 3 3 2 2 3 3 3 3 4 4 4 4 4 5 5 5 5 5 5 5 4 4 4 5 5 5 6 7 7 8 9 9 10 10 10 10 10 10 10 9 9 9 9 9 9 9 9 8 8
7 6 6 5 5 4 4 4 4 3 3 3 3 3 3 3 3 3 2 2 2 2 2 2 2 2 2 3 3 3 3 3 3 3 3 3 3 3 3 3 3 3 3 3 3 3 3 2 2 2 2 2 2 2 2 2 2 2 2 3 3 3 3 3 3 3 4 4 4 4 4 4 4 4 4 4 4 4 4 4 4 5 5 6 7 7 8 9 10 10 11 11 10 10 10 9 9 8 8 8 8 8 8
6 6 5 5 4 4 4 3 3 3 3 3 3 3 3 3 3 2 2 2 2 2 2 2 3 3 3 3 3 3 3 3 4 4 4 4 4 4 4 4 4 3 3 3 3 3 3 3 3 2 2 2 2 2 2 2 2 2 2 2 2 3 3 3 3 3 3 3 3 3 3 4 4 4 4 4 4 4 4 4 4 4 4 4 5 5 6 7 8 9 10 10 11 11 11 10 9 9 8 8 8 8 8
6 5 5 4 4 4 3 3 3 3 3 3 3 3 3 2 2 2 2 2 3 3 3 3 3 3 3 4 4 4 4 4 4 4 4 4 4 4 4 4 4 4 4 4 4 4 3 3 3 3 3 3 3 3 3 2 2 2 2 2 2 3 3 3 3 3 3 3 3 3 3 3 3 4 4 4 4 4 4 4 4 4 4 4 4 4 4 5 6 7 8 9 10 10 11 11 10 10 9 9 8 8 7
5 5 4 4 4 3 3 3 3 3 3 3 3 2 2 2 2 2 2 3 3 3 3 4 4 4 4 4 4 5 5 5 5 5 5 5 5 5 5 5 5 5 5 5 5 4 4 4 4 4 4 4 3 3 3 3 3 3 3 3 3 3 3 3 3 3 3 3 3 3 3 3 3 3 3 4 4 4 4 4 4 4 4 4 4 4 4 4 5 5 6 7 8 9 10 10 11 11 11 10 9 8 8
5 4 4 4 3 3 3 3 3 2 2 2 2 2 2 2 2 3 3 3 3 4 4 4 4 4 5 5 5 5 5 5 5 5 5 5 5 5 5 5 5 5 5 5 5 5 5 5 5 5 5 4 4 4 4 4 4 3 3 3 3 3 3 2 2 2 2 2 2 2 3 3 3 3 3 3 4 4 4 4 4 4 4 4 4 4 4 4 4 4 5 5 6 7 8 9 10 10 11 11 10 10 9
4 4 4 4 3 3 3 3 2 2 2 2 2 2 2 3 3 3 3 3 4 4 4 4 4 5 5 5 5 5 5 5 5 5 5 5 5 5 5 5 5 5 5 5 5 5 5 5 5 5 5 5 5 5 5 5 4 4 4 3 3 3 3 2 2 2 2 2 2 2 2 3 3 3 3 3 3 3 3 4 4 4 4 5 5 5 5 4 4 4 4 5 5 6 6 7 8 9 10 10 11 11 10
4 4 4 3 3 3 3 2 2 2 2 2 2 3 3 3 3 3 4 4 4 4 4 4 4 5 5 5 5 5 5 5 5 5 5 5 5 5 5 5 5 5 5 5 5 5 5 5 5 5 5 5 5 5 6 5 5 5 5 4 4 3 3 3 3 2 2 2 2 2 2 2 3 3 3 3 3 3 3 4 4 4 4 5 5 5 5 5 5 5 5 5 5 5 5 6 7 7 8 9 10 10 11
4 4 3 3 3 3 2 2 2 2 2 2 3 3 3 3 3 4 4 4 4 4 4 4 4 5 5 5 5 5 5 5 5 5 5 5 5 5 5 5 5 5 5 5 5 5 5 5 6 6 6 6 6 6 6 6 6 6 5 5 5 4 4 3 3 3 3 3 3 3 3 2 2 2 3 3 3 3 3 4 4 4 5 5 5 5 6 6 6 5 5 6 5 5 5 6 6 7 7 8 8 9 10
4 4 3 3 3 2 2 2 2 2 2 3 3 3 3 3 3 3 4 4 4 4 4 4 4 4 5 5 5 5 5 5 5 5 5 5 5 5 5 5 5 5 5 5 5 5 5 6 6 6 6 6 6 6 6 6 6 6 6 6 6 5 5 4 4 3 3 3 3 3 3 3 3 3 3 3 3 3 3 4 4 4 5 5 6 6 6 6 6 6 6 6 6 6 6 6 6 6 7 7 7 8 8
4 3 3 3 3 2 2 2 2 2 2 3 3 3 3 3 3 3 3 3 4 4 4 4 4 4 4 4 5 5 5 5 5 5 5 5 5 5 5 5 5 5 5 5 5 5 5 5 5 6 6 6 6 6 6 6 7 7 7 7 7 6 6 5 5 4 4 4 3 3 3 3 3 3 3 3 3 3 3 4 4 5 5 6 6 6 7 7 7 7 7 7 7 7 7 7 7 7 7 7 7 7 8
4 3 3 3 2 2 2 2 2 2 2 2 3 3 3 3 3 3 3 3 3 4 4 4 4 4 4 4 4 4 4 4 5 5 5 5 5 5 5 5 5 5 5 5 5 5 5 5 5 5 5 6 6 6 6 6 7 7 7 7 7 7 7 6 6 5 5 5 4 4 4 4 3 3 3 3 3 3 4 4 4 5 5 6 6 7 7 7 7 7 7 7 7 7 7 7 7 8 8 8 8 8 8
3 3 3 3 2 2 2 2 2 2 2 2 2 2 3 3 3 3 3 3 3 4 4 4 4 4 4 4 4 4 4 4 4 4 4 4 5 5 5 5 5 5 4 5 5 5 5 5 5 5 5 5 6 6 6 6 7 7 7 7 7 7 7 7 7 7 6 6 5 5 5 4 4 4 4 4 4 4 4 4 4 5 5 5 6 6 7 7 7 8 8 8 8 8 8 8 8 8 8 8 9 9 9
3 3 3 3 3 2 2 2 2 2 2 2 2 2 2 3 3 3 3 3 3 4 4 4 4 4 4 4 5 5 5 5 5 5 5 4 4 4 4 4 4 4 4 4 4 4 5 5 5 5 5 5 5 5 6 6 6 7 7 7 7 7 7 7 7 7 7 7 6 6 5 5 5 5 5 4 4 4 4 4 5 5 5 5 6 6 7 7 7 8 8 8 8 8 8 8 8 9 9 9 9 9 9
3 3 3 3 3 3 3 3 3 3 2 2 2 2 2 3 3 3 3 3 4 4 4 4 5 5 5 5 5 5 5 5 5 5 5 5 5 5 4 4 4 4 4 4 4 4 4 4 4 5 5 5 5 5 5 5 6 6 6 7 7 7 7 8 8 7 7 7 7 6 6 6 5 5 5 5 5 4 4 5 5 5 5 5 6 6 6 7 7 7 8 8 8 8 8 9 9 9 9 9 10 10 10
3 3 3 3 3 3 3 3 3 2 2 2 2 2 2 3 3 3 3 3 4 4 4 4 5 5 5 5 5 5 5 5 5 5 5 5 5 5 5 5 5 5 4 4 4 4 4 4 4 4 4 4 4 4 5 5 5 5 6 6 6 7 7 7 8 8 8 7 7 7 6 6 6 5 5 5 5 5 4 5 5 5 5 6 6 6 6 6 7 7 7 8 8 8 9 9 9 10 10 10 10 11 11
4 3 3 3 3 3 3 3 3 2 2 2 2 2 2 3 3 3 3 4 4 4 4 4 5 5 5 5 5 5 5 5 5 5 5 5 5 5 5 5 5 5 5 5 5 5 5 5 4 4 4 4 4 4 4 4 4 5 5 5 6 6 7 7 7 8 8 7 7 7 6 6 5 5 5 4 4 4 4 5 5 5 5 6 6 6 6 7 7 7 7 8 8 8 8 9 9 10 10 11 11 11 12
4 3 3 3 3 3 3 3 2 2 2 2 2 3 3 3 3 3 4 4 4 4 4 5 5 5 5 5 5 5 5 5 5 5 5 5 5 5 5 5 5 5 5 5 5 5 5 5 5 5 4 4 4 5 5 4 4 4 5 5 5 6 6 7 7 7 7 7 7 7 6 6 5 4 4 4 4 4 4 4 5 5 5 5 6 6 6 7 7 7 7 8 8 8 8 8 9 9 10 11 11 12 12
4 3 3 3 3 3 3 3 2 2 2 2 2 3 3 3 3 4 4 4 4 5 5 5 5 5 5 5 5 5 5 5 5 5 5 5 5 5 5 5 5 5 5 5 5 5 5 5 5 5 5 5 5 5 5 5 5 5 5 5 5 5 6 6 7 7 7 7 7 7 6 6 5 4 4 4 4 4 4 4 5 5 5 5 5 6 6 7 7 7 8 8 7 7 7 7 8 8 9 10 11 12 12
4 4 4 4 3 3 3 3 3 2 2 2 2 3 3 3 3 4 4 5 5 5 5 5 5 5 5 6 6 6 6 6 6 6 6 6 6 6 6 6 6 6 6 6 6 6 6 6 5 5 5 5 5 5 5 5 5 5 5 5 5 6 6 6 7 7 7 7 7 7 7 6 5 5 4 4 4 4 4 5 5 5 5 5 5 5 6 6 7 7 8 8 7 7 7 7 7 7 8 10 11 12 12
5 5 4 4 4 3 3 3 3 3 3 3 3 3 3 4 4 4 5 5 5 5 5 6 6 6 6 6 6 7 7 7 7 7 7 7 7 7 7 7 7 7 7 7 7 7 7 7 6 6 6 6 6 6 6 6 6 6 6 6 6 6 6 7 7 7 7 7 7 7 7 7 6 6 5 5 5 5 5 5 5 5 5 5 5 5 5 6 6 7 7 7 7 7 7 6 6 7 7 9 10 11 12
6 5 5 5 4 4 4 3 3 3 3 3 3 3 4 4 4 5 5 5 6 6 6 6 6 6 6 7 7 7 7 8 8 8 8 8 8 8 8 8 8 8 8 8 8 8 8 7 7 7 7 7 7 7 7 7 7 7 7 7 7 7 7 7 7 8 8 8 8 8 7 7 7 6 6 5 5 5 5 5 5 5 5 5 5 5 5 5 6 6 7 7 7 7 7 6 6 6 7 8 9 11 12
6 6 6 5 5 4 4 4 4 4 4 4 4 4 4 4 4 5 5 6 6 6 6 6 6 6 6 7 8 8 8 8 8 8 8 8 8 8 8 8 8 8 8 8 8 8 8 8 8 8 8 8 7 7 7 7 7 7 7 7 7 7 7 7 7 8 8 8 8 8 8 7 7 6 6 5 5 5 5 5 5 5 6 6 6 6 6 6 6 6 6 6 7 7 7 6 6 6 6 7 9 10 11
6 6 5 5 5 5 4 4 4 5 4 4 5 5 5 5 5 5 5 6 6 6 7 7 7 7 7 7 7 7 8 8 8 8 8 8 8 8 8 8 8 8 7 8 8 8 8 8 8 8 8 8 8 7 7 7 7 7 7 7 7 7 7 7 7 8 8 8 8 8 8 7 6 6 5 5 5 4 4 4 5 5 6 6 6 7 7 7 6 6 5 6 6 6 6 6 6 5 5 6 8 9 11
5 5 5 5 5 4 4 5 5 5 4 5 5 5 5 5 5 5 5 5 6 6 7 7 8 8 8 8 7 7 7 7 7 7 7 7 7 7 7 7 7 7 7 7 7 7 7 7 7 7 7 7 7 7 7 7 7 7 7 7 7 6 6 7 7 7 8 8 8 8 8 7 6 6 5 4 4 3 3 3 4 5 6 6 7 7 7 7 7 6 6 5 5 5 6 6 6 6 5 6 7 9 11
5 5 5 5 5 5 5 5 5 5 5 4 4 4 4 4 4 4 5 5 5 6 7 7 7 7 8 7 7 7 7 7 6 6 6 6 6 6 6 7 7 7 7 7 7 7 7 7 7 7 7 7 7 7 7 7 7 6 7 6 6 6 6 6 7 7 7 8 8 8 8 7 6 5 4 3 3 2 2 3 3 4 5 6 7 8 8 8 8 7 6 5 5 5 6 6 6 6 6 6 7 8 10
5 5 5 4 4 4 5 5 5 5 5 4 4 4 3 4 4 4 5 5 5 5 5 6 6 6 6 6 6 6 6 5 5 5 5 5 5 5 5 6 6 6 6 7 7 7 7 7 6 6 6 6 6 6 6 6 6 6 6 6 6 6 6 6 6 7 7 7 7 8 7 7 6 5 4 3 2 2 1 2 3 4 5 6 7 8 8 8 8 8 7 6 5 5 5 6 6 6 6 6 6 8 10
5 4 4 4 4 4 4 5 5 4 4 4 3 3 3 4 4 4 4 4 4 4 4 4 5 5 4 4 5 5 4 4 4 4 4 4 4 4 4 4 4 5 6 6 6 6 6 6 6 6 6 6 6 6 6 6 6 6 6 6 6 6 6 6 6 6 7 7 7 7 7 7 6 5 4 2 1 1 1 1 2 3 5 6 7 8 8 8 8 8 7 6 5 5 5 6 7 7 7 6 6 7 9
5 4 4 4 4 4 4 4 4 4 3 3 3 3 3 3 3 4 4 4 4 4 4 4 4 4 3 4 4 3 3 3 4 4 3 3 3 3 4 3 3 4 5 5 5 5 6 6 5 5 6 5 6 6 5 6 6 6 6 6 6 6 5 6 6 6 6 6 7 7 7 6 6 5 3 2 1 1 1 1 2 3 4 5 6 7 8 8 8 8 8 7 6 5 5 6 7 7 7 6 6 7 9
5 4 4 3 3 3 4 3 3 3 3 3 3 3 3 3 3 3 4 4 4 4 4 4 4 3 3 3 3 3 3 3 3 3 3 3 3 3 3 3 3 3 4 4 4 5 5 5 5 5 5 5 5 5 5 6 6 6 6 6 6 6 5 5 6 6 6 6 6 6 6 6 5 4 3 2 1 1 1 1 2 3 4 5 6 7 7 8 8 8 8 7 7 6 6 7 7 8 8 7 7 7 9
4 4 4 4 3 3 3 3 3 3 3 3 3 2 3 3 3 3 3 4 4 4 3 4 4 3 3 2 2 2 2 2 3 3 3 3 3 3 3 3 3 3 3 3 3 4 4 4 4 5 5 5 5 5 5 6 6 6 6 6 6 6 5 5 5 6 6 6 6 6 6 6 5 4 3 2 1 1 1 2 2 4 5 5 6 7 7 7 8 8 8 8 7 7 7 7 8 8 8 8 7 8 9
4 4 5 4 4 3 3 3 3 3 3 3 2 2 3 3 3 3 3 4 4 3 3 3 4 4 3 3 2 2 2 2 2 3 3 3 3 3 3 3 3 3 3 3 3 3 3 3 4 4 4 4 4 4 5 6 6 6 6 6 6 6 5 5 5 5 5 6 6 6 6 6 5 4 3 2 2 1 1 2 3 4 5 6 6 6 7 7 8 8 8 8 7 7 7 7 8 8 8 8 8 8 9
5 5 5 5 4 3 3 3 3 3 3 3 2 2 3 3 3 3 3 4 4 3 3 3 3 3 4 3 3 2 3 2 2 2 2 2 2 3 3 3 3 3 3 2 2 2 3 3 3 3 3 3 3 4 5 5 5 5 6 6 6 5 5 5 5 5 5 5 6 6 6 6 5 5 4 3 2 2 2 2 3 4 5 6 6 6 7 7 8 8 8 8 8 7 7 8 8 9 9 9 8 9 9
6 6 6 5 4 4 3 3 3 3 3 3 3 3 3 3 3 3 3 4 4 4 3 2 2 3 3 3 3 3 3 2 2 2 2 2 2 2 2 2 3 3 2 2 2 2 2 2 3 3 3 2 3 4 4 4 5 5 5 5 5 5 5 5 5 5 5 5 6 6 6 6 6 5 4 3 3 2 2 3 3 4 5 6 6 7 7 7 8 8 8 8 8 7 7 8 8 9 9 9 9 9 10
6 6 5 5 4 4 3 3 3 4 4 3 3 4 4 4 4 3 3 3 4 4 4 2 2 2 3 3 3 3 3 2 2 2 2 2 2 2 2 2 2 2 2 2 2 2 2 2 2 2 2 2 3 3 4 4 5 5 5 5 5 5 5 5 5 5 5 5 6 6 6 6 6 5 5 4 3 3 3 3 4 5 5 6 6 7 7 7 8 8 8 8 7 7 7 8 8 9 9 9 9 10 10
4 4 4 4 4 4 3 4 4 4 4 4 4 5 5 5 4 4 3 3 3 3 4 3 2 2 3 3 3 3 3 2 2 2 2 2 2 2 2 2 2 2 2 2 2 2 2 2 2 2 2 2 3 3 3 4 5 5 4 5 5 5 5 5 5 5 6 6 6 6 6 6 6 5 5 4 4 4 4 4 5 5 6 6 6 6 7 7 8 8 8 8 7 7 7 8 8 9 9 10 10 10 11
3 3 3 3 3 4 4 4 4 5 5 5 5 5 5 5 4 4 3 3 2 2 3 4 3 3 2 3 3 3 3 2 2 2 2 2 2 2 2 2 2 2 2 2 3 3 3 2 2 2 2 2 2 3 3 4 4 4 4 4 4 4 5 5 5 6 6 6 6 6 6 6 6 6 5 4 4 4 4 5 5 6 6 6 6 6 7 7 8 8 8 8 7 7 7 8 8 9 9 10 10 11 11
3 4 4 4 4 4 5 5 5 5 5 5 5 5 5 4 4 3 3 3 3 2 2 3 3 3 3 2 2 2 2 2 2 2 2 2 2 2 2 2 3 3 3 3 3 3 3 3 3 2 2 2 2 3 3 4 4 3 4 4 4 4 5 5 5 6 6 6 6 6 6 6 6 6 5 4 4 4 4 5 6 6 6 6 6 6 7 7 8 9 9 8 7 7 7 8 9 9 10 10 11 12 12
5 5 5 5 5 5 5 5 5 5 5 5 4 4 4 4 4 3 3 3 3 3 3 3 3 3 3 3 3 2 3 3 3 3 3 2 3 3 4 3 4 5 6 5 5 4 4 4 3 3 4 3 3 3 3 3 3 3 4 3 3 4 5 5 5 6 6 6 6 6 6 6 6 5 5 4 4 4 4 4 5 6 6 6 6 7 7 8 8 9 9 8 8 7 7 8 9 10 10 11 11 12 13
6 6 6 5 5 5 5 5 4 4 4 4 4 4 4 4 4 3 3 3 3 3 3 3 3 3 3 3 3 3 4 4 4 4 4 3 4 5 8 9 8 8 8 8 8 7 7 7 7 7 7 6 5 4 4 3 3 3 3 3 3 4 5 5 5 5 5 6 6 6 6 6 6 5 5 4 3 3 3 4 5 5 6 6 6 7 7 8 8 9 9 8 8 8 8 8 9 10 10 11 11 12 13
5 5 5 5 4 4 4 4 4 3 3 4 4 4 4 4 3 3 3 3 3 3 3 3 3 4 3 3 4 5 6 6 6 6 7 9 9 9 10 12 12 11 11 12 12 11 11 11 11 11 11 9 8 6 5 4 3 3 3 3 4 4 4 5 5 5 5 5 5 5 5 6 5 5 4 4 3 3 3 4 5 6 6 7 7 7 7 8 8 9 9 8 8 8 8 9 9 10 10 11 11 12 13
5 5 5 4 4 4 4 4 4 4 4 4 4 4 4 4 4 4 3 4 4 4 4 4 5 6 6 6 7 9 10 11 12 12 12 15 16 16 12 10 9 10 11 14 15 14 13 12 12 12 13 12 11 10 8 6 5 4 4 4 4 4 4 4 5 5 5 5 4 4 5 5 5 5 4 3 3 3 3 4 6 7 7 7 7 7 7 8 9 9 9 9 8 8 8 9 9 10 10 11 12 12 13
5 5 5 5 5 5 5 5 4 4 4 4 4 4 4 4 4 4 5 5 5 6 6 7 8 10 12 12 12 14 16 16 17 18 17 14 15 15 13 5 2 4 7 10 12 13 12 11 12 13 13 13 13 12 10 9 7 6 5 4 4 3 4 4 4 4 4 4 4 4 4 4 4 4 3 3 3 4 4 5 7 8 9 8 8 7 7 8 9 9 9 9 9 9 9 9 9 10 10 11 12 13 13
6 6 6 6 6 5 5 5 5 5 5 5 5 5 5 5 6 6 7 8 9 10 11 12 13 13 15 17 19 19 19 17 15 15 15 9 4 3 5 6 5 4 6 1 -1 1 7 10 13 16 18 15 13 12 11 11 9 8 6 5 4 3 3 3 3 3 3 4 4 3 4 3 3 3 3 4 4 5 5 6 7 9 9 9 8 8 8 8 8 9 9 9 9 9 9 9 9 10 11 11 12 13 13
7 7 7 7 7 7 7 7 7 7 7 7 7 8 8 9 10 11 12 13 14 15 16 18 17 16 15 15 15 14 13 11 8 6 6 5 -0 -4 -3 6 7 6 6 1 -7 -8 4 15 16 14 17 17 15 13 12 12 11 9 7 5 4 3 3 2 2 2 3 3 3 3 2 2 2 2 3 4 5 5 6 7 8 9 9 9 9 8 8 8 9 9 9 9 9 9 9 9 9 10 11 12 12 13 13
9 9 9 10 10 10 11 11 11 11 11 12 12 13 14 15 17 17 17 18 18 18 17 17 16 15 12 10 8 6 5 4 2 -0 -2 1 5 4 -2 -2 -1 0 4 14 13 9 8 16 15 12 11 14 14 13 12 13 12 10 9 6 4 3 2 2 1 1 2 2 2 1 0 1 1 2 3 4 5 6 7 7 8 9 9 9 8 8 8 9 9 9 9 9 9 9 9 9 9 10 11 12 12 12 12
11 11 12 12 13 13 14 14 15 16 16 17 18 18 19 19 19 19 18 18 18 16 15 11 9 7 6 3 1 -0 -1 -1 -2 -2 -2 1 7 11 7 0 -2 -1 1 9 17 19 15 8 7 9 14 18 17 15 14 15 14 13 11 9 7 4 3 1 1 1 1 1 -0 -0 0 1 1 2 2 3 4 5 7 7 8 8 9 9 8 8 8 9 9 9 10 10 10 10 10 10 10 10 11 12 12 12 12
12 13 14 15 15 15 16 17 18 18 19 19 20 19 19 18 17 17 16 15 13 11 8 5 2 1 -0 -1 -2 -3 -4 -2 -0 2 4 4 4 6 10 14 15 12 7 2 3 7 11 13 13 13 11 20 22 19 16 17 17 16 15 13 10 7 4 3 2 1 1 -0 0 2 3 3 2 1 1 2 3 5 7 8 8 8 8 8 8 8 8 9 9 10 10 10 11 11 10 10 11 11 12 12 12 12 11
15 15 15 16 16 16 17 18 18 18 18 18 17 16 15 14 13 12 10 8 5 3 1 -1 -2 -3 -3 -3 -2 -2 -0 1 4 7 8 6 4 4 8 14 17 19 21 16 11 6 1 15 21 18 5 11 16 19 17 16 17 18 18 16 13 10 7 5 4 2 1 0 1 3 5 5 4 2 1 1 3 5 7 8 9 9 8 8 8 8 8 9 9 10 11 11 11 11 11 11 11 12 12 12 12 12 11
16 16 16 16 16 16 17 16 16 15 14 13 12 11 9 8 6 5 3 1 -1 -2 -4 -4 -4 -3 -2 -1 1 3 6 8 9 7 3 5 7 9 9 9 10 13 17 19 21 19 9 12 14 14 9 5 8 14 19 17 16 16 16 16 14 13 10 8 6 4 2 1 2 4 6 7 5 3 1 1 2 4 7 9 9 9 8 8 8 8 8 9 9 10 10 11 11 11 11 11 11 12 12 12 12 11 11
14 14 14 14 14 14 13 12 11 10 9 7 6 4 3 2 0 -1 -2 -3 -3 -4 -4 -3 -2 -0 2 4 6 8 10 10 10 8 3 3 7 11 11 9 11 13 15 15 16 18 20 18 14 11 14 7 5 8 15 17 17 16 15 15 14 14 12 10 8 6 3 2 3 4 7 8 7 4 1 -0 1 4 8 9 9 9 9 9 8 8 8 8 9 10 10 10 10 10 10 11 11 12 12 12 11 11 11
12 11 10 10 10 9 7 6 5 4 3 1 0 -1 -2 -2 -2 -3 -2 -2 -2 -1 0 1 3 5 8 9 10 11 11 9 8 8 9 6 5 8 12 13 15 17 19 18 17 16 16 17 16 15 15 12 9 8 10 15 17 16 14 15 14 13 12 11 10 8 5 4 4 5 7 8 7 5 2 0 2 5 8 9 10 9 9 9 9 9 8 9 9 10 10 10 10 10 11 11 12 12 12 11 11 11 11
Height
3181 3181 3181 3181 3180 3180 3180 3180 3180 3180 3180 3180 3180 3180 3180 3180 3180 3180 3180 3180 3180 3180 3180 3180 3180 3180 3180 3180 3180 3180 3180 3180 3179 3179 3179 3179 3179 3179 3178 3178 3178 3178 3178 3178 3178 3178 3177 3177 3177 3176 3176 3176 3176 3175 3175 3174 3174 3174 3174 3173 3173 3173 3173 3173 3173 3173 3173 3173 3173 3173 3173 3173 3173 3172 3172 3172 3172 3172 3172 3172 3171 3171 3171 3171 3171 3171 3171 3171 3171 3171 3171 3171 3171 3171 3171 3171 3172 3172 3172 3172 3172 3172 3173
3180 3180 3180 3180 3180 3180 3180 3180 3180 3180 3180 3180 3180 3180 3180 3180 3180 3180 3180 3180 3180 3180 3180 3180 3180 3180 3180 3180 3180 3179 3179 3179 3179 3179 3179 3179 3179 3178 3178 3178 3178 3178 3178 3177 3177 3177 3177 3177 3176 3176 3176 3175 3175 3175 3174 3174 3174 3173 3173 3173 3173 3172 3172 3172 3172 3172 3172 3172 3172 3172 3172 3172 3172 3172 3171 3171 3171 3171 3171 3171 3171 3170 3170 3170 3170 3170 3170 3170 3170 3170 3170 3170 3170 3170 3170 3170 3170 3170 3170 3171 3171 3171 3171
3180 3180 3180 3180 3180 3180 3180 3180 3180 3180 3180 3180 3180 3180 3180 3180 3180 3180 3180 3180 3180 3180 3179 3179 3179 3179 3179 3179 3179 3179 3179 3179 3179 3179 3179 3179 3178 3178 3178 3178 3178 3177 3177 3177 3177 3176 3176 3176 3176 3175 3175 3175 3175 3174 3174 3174 3173 3173 3173 3173 3172 3172 3172 3171 3171 3171 3171 3171 3171 3171 3171 3171 3171 3171 3170 3170 3170 3170 3170 3170 3170 3169 3169 3169 3169 3169 3169 3169 3169 3169 3169 3169 3169 3169 3169 3169 3169 3169 3169 3169 3169 3169 3169
3180 3180 3180 3180 3180 3180 3180 3179 3179 3179 3180 3180 3180 3180 3180 3180 3180 3180 3180 3180 3180 3179 3179 3179 3179 3179 3179 3179 3179 3179 3179 3179 3179 3179 3179 3178 3178 3178 3178 3178 3178 3177 3177 3177 3176 3176 3176 3175 3175 3175 3175 3174 3174 3174 3173 3173 3173 3173 3172 3172 3172 3171 3171 3171 3170 3170 3170 3170 3170 3170 3169 3170 3169 3169 3169 3169 3169 3169 3169 3169 3169 3168 3168 3168 3168 3168 3168 3168 3168 3168 3168 3168 3168 3168 3168 3168 3168 3168 3168 3168 3168 3168 3168
3179 3179 3179 3179 3179 3179 3179 3179 3179 3179 3179 3179 3179 3179 3179 3180 3180 3180 3180 3180 3180 3179 3179 3179 3179 3179 3179 3179 3179 3179 3179 3179 3179 3178 3178 3178 3178 3178 3178 3178 3177 3177 3177 3176 3176 3176 3175 3175 3175 3174 3174 3174 3173 3173 3173 3173 3173 3172 3172 3172 3171 3171 3171 3170 3170 3169 3169 3169 3168 3168 3168 3168 3168 3168 3168 3168 3168 3168 3168 3168 3168 3168 3167 3167 3167 3167 3167 3167 3167 3167 3167 3166 3166 3166 3166 3166 3166 3166 3166 3166 3166 3167 3167
3179 3179 3179 3179 3179 3179 3179 3179 3179 3179 3179 3179 3179 3179 3179 3179 3179 3180 3180 3180 3179 3179 3179 3179 3179 3179 3179 3179 3179 3179 3178 3178 3178 3178 3178 3178 3178 3178 3178 3177 3177 3177 3176 3176 3176 3175 3175 3174 3174 3174 3173 3173 3173 3173 3173 3172 3172 3172 3171 3171 3171 3171 3170 3170 3169 3169 3169 3168 3168 3168 3167 3167 3167 3167 3167 3167 3167 3167 3167 3166 3166 3166 3166 3166 3166 3166 3166 3166 3165 3165 3165 3165 3165 3165 3165 3165 3165 3165 3165 3165 3165 3165 3165
3179 3179 3179 3179 3179 3179 3179 3179 3179 3179 3179 3179 3179 3179 3179 3179 3179 3179 3179 3179 3179 3179 3179 3179 3179 3179 3179 3179 3179 3178 3178 3178 3178 3178 3178 3178 3178 3177 3177 3177 3177 3176 3176 3176 3175 3175 3174 3174 3174 3173 3173 3173 3173 3172 3172 3172 3172 3171 3171 3171 3170 3170 3170 3169 3169 3169 3168 3168 3167 3167 3166 3166 3166 3165 3165 3165 3165 3165 3165 3165 3165 3165 3165 3164 3164 3164 3164 3164 3164 3164 3164 3164 3163 3163 3163 3163 3163 3163 3163 3163 3163 3163 3163
3179 3179 3179 3179 3179 3179 3179 3179 3179 3179 3179 3179 3179 3179 3179 3179 3179 3179 3179 3179 3179 3179 3179 3179 3179 3179 3179 3179 3178 3178 3178 3178 3178 3178 3178 3177 3177 3177 3177 3177 3176 3176 3176 3175 3175 3175 3174 3174 3173 3173 3173 3172 3172 3172 3171 3171 3171 3170 3170 3170 3170 3169 3169 3169 3168 3168 3168 3168 3167 3167 3166 3165 3165 3165 3164 3164 3164 3163 3163 3163 3163 3163 3163 3163 3163 3163 3163 3163 3163 3163 3163 3162 3162 3162 3162 3162 3162 3162 3162 3162 3162 3162 3162
3178 3178 3179 3179 3179 3179 3179 3179 3179 3179 3179 3179 3179 3179 3179 3179 3179 3179 3179 3179 3179 3179 3179 3179 3179 3179 3179 3178 3178 3178 3178 3178 3178 3177 3177 3177 3177 3176 3176 3176 3176 3175 3175 3175 3175 3174 3174 3173 3173 3173 3172 3172 3172 3171 3171 3170 3170 3170 3169 3169 3169 3168 3168 3168 3168 3168 3167 3167 3167 3166 3166 3165 3164 3164 3164 3163 3163 3163 3162 3162 3162 3162 3161 3161 3161 3161 3161 3161 3161 3160 3161 3160 3160 3160 3160 3160 3160 3160 3160 3160 3160 3160 3160
3178 3178 3178 3178 3178 3178 3178 3178 3179 3179 3179 3179 3179 3179 3179 3179 3179 3179 3179 3179 3179 3179 3179 3179 3178 3178 3178 3178 3178 3178 3178 3178 3177 3177 3177 3177 3176 3176 3176 3175 3175 3175 3175 3174 3174 3174 3173 3173 3173 3172 3172 3171 3171 3171 3170 3170 3169 3169 3169 3168 3168 3168 3168 3167 3167 3167 3166 3166 3166 3165 3165 3164 3164 3163 3163 3163 3162 3162 3162 3161 3161 3160 3160 3160 3160 3159 3159 3159 3159 3159 3159 3158 3158 3158 3158 3158 3158 3158 3158 3158 3158 3158 3158
3178 3178 3178 3178 3178 3178 3178 3178 3178 3178 3178 3178 3178 3179 3179 3179 3179 3179 3179 3179 3178 3178 3178 3178 3178 3178 3178 3178 3178 3178 3177 3177 3177 3177 3176 3176 3176 3176 3175 3175 3175 3174 3174 3174 3173 3173 3173 3173 3172 3172 3171 3171 3170 3170 3170 3169 3169 3168 3168 3168 3167 3167 3167 3166 3166 3166 3165 3165 3165 3164 3164 3164 3163 3163 3163 3162 3162 3161 3161 3160 3160 3160 3159 3159 3159 3158 3158 3158 3158 3157 3157 3157 3157 3157 3156 3156 3156 3156 3156 3156 3156 3156 3156
3178 3178 3178 3178 3178 3178 3178 3178 3178 3178 3178 3178 3178 3178 3178 3178 3178 3178 3178 3178 3178 3178 3178 3178 3178 3178 3177 3177 3177 3177 3177 3177 3176 3176 3176 3176 3175 3175 3175 3174 3174 3174 3173 3173 3173 3173 3173 3172 3172 3171 3171 3170 3170 3169 3169 3169 3168 3168 3167 3167 3167 3166 3166 3165 3165 3165 3164 3164 3164 3163 3163 3163 3163 3162 3162 3162 3161 3161 3160 3160 3159 3159 3158 3158 3158 3158 3157 3157 3157 3156 3156 3156 3155 3155 3155 3154 3154 3154 3154 3154 3154 3154 3154
3177 3178 3178 3178 3178 3178 3178 3178 3178 3178 3178 3178 3178 3178 3178 3178 3178 3178 3178 3178 3178 3178 3178 3177 3177 3177 3177 3177 3177 3176 3176 3176 3176 3175 3175 3175 3175 3174 3174 3174 3173 3173 3173 3173 3172 3172 3172 3171 3171 3171 3170 3170 3169 3169 3168 3168 3168 3167 3167 3166 3166 3166 3165 3165 3164 3164 3163 3163 3163 3163 3162 3162 3162 3161 3161 3161 3160 3160 3159 3159 3159 3158 3158 3158 3157 3157 3156 3156 3155 3155 3155 3154 3154 3154 3153 3153 3153 3153 3153 3152 3152 3152 3152
3177 3177 3177 3177 3177 3177 3177 3178 3178 3178 3178 3178 3178 3178 3178 3178 3178 3178 3178 3177 3177 3177 3177 3177 3177 3176 3176 3176 3176 3176 3175 3175 3175 3175 3174 3174 3174 3174 3173 3173 3173 3173 3172 3172 3172 3171 3171 3171 3170 3170 3170 3169 3169 3168 3168 3168 3167 3167 3166 3166 3165 3165 3164 3164 3163 3163 3163 3162 3162 3162 3161 3161 3161 3160 3160 3160 3159 3159 3158 3158 3158 3158 3157 3157 3156 3156 3155 3155 3154 3154 3154 3153 3153 3153 3153 3152 3152 3151 3151 3151 3150 3150 3150
3176 3176 3177 3177 3177 3177 3177 3177 3177 3177 3177 3177 3177 3177 3177 3177 3177 3177 3177 3177 3177 3176 3176 3176 3176 3176 3175 3175 3175 3175 3175 3174 3174 3174 3174 3173 3173 3173 3173 3173 3172 3172 3172 3171 3171 3170 3170 3170 3169 3169 3169 3168 3168 3168 3167 3167 3166 3166 3166 3165 3165 3164 3164 3163 3163 3163 3162 3162 3161 3161 3160 3160 3160 3159 3159 3158 3158 3158 3158 3157 3157 3157 3156 3156 3155 3155 3154 3154 3153 3153 3153 3153 3152 3152 3151 3151 3150 3150 3149 3149 3149 3148 3148
3176 3176 3176 3176 3176 3176 3176 3176 3176 3176 3176 3176 3176 3176 3176 3176 3176 3176 3176 3176 3176 3176 3175 3175 3175 3175 3175 3174 3174 3174 3174 3173 3173 3173 3173 3173 3173 3172 3172 3172 3172 3171 3171 3170 3170 3170 3169 3169 3168 3168 3168 3168 3167 3167 3167 3166 3166 3165 3165 3164 3164 3163 3163 3163 3162 3162 3161 3161 3160 3160 3159 3159 3158 3158 3158 3157 3157 3157 3156 3156 3155 3155 3155 3154 3154 3154 3153 3153 3153 3152 3152 3151 3151 3150 3150 3149 3149 3149 3148 3148 3147 3147 3147
3175 3175 3175 3175 3176 3176 3176 3176 3176 3176 3176 3176 3176 3176 3176 3175 3175 3175 3175 3175 3175 3175 3175 3174 3174 3174 3174 3173 3173 3173 3173 3173 3173 3172 3172 3172 3172 3171 3171 3171 3171 3170 3170 3169 3169 3169 3168 3168 3168 3167 3167 3167 3166 3166 3165 3165 3165 3164 3164 3163 3163 3163 3162 3162 3161 3161 3160 3160 3159 3159 3158 3158 3157 3157 3156 3156 3156 3155 3155 3154 3154 3153 3153 3153 3153 3152 3152 3152 3151 3151 3151 3150 3150 3149 3149 3148 3148 3147 3147 3146 3146 3145 3145
3174 3174 3175 3175 3175 3175 3175 3175 3175 3175 3175 3175 3175 3175 3175 3175 3175 3174 3174 3174 3174 3174 3174 3173 3173 3173 3173 3173 3173 3172 3172 3172 3172 3171 3171 3171 3171 3170 3170 3170 3169 3169 3169 3168 3168 3168 3168 3167 3167 3166 3166 3166 3165 3165 3164 3164 3164 3163 3163 3163 3162 3162 3161 3161 3160 3160 3159 3158 3158 3158 3157 3157 3156 3156 3155 3155 3154 3154 3153 3153 3153 3152 3152 3151 3151 3150 3150 3150 3149 3149 3149 3148 3148 3148 3147 3147 3146 3146 3145 3145 3144 3144 3143
3173 3174 3174 3174 3174 3174 3174 3174 3174 3174 3174 3174 3174 3174 3174 3174 3174 3174 3173 3173 3173 3173 3173 3173 3173 3172 3172 3172 3172 3171 3171 3171 3171 3170 3170 3170 3169 3169 3169 3169 3168 3168 3168 3168 3167 3167 3166 3166 3166 3165 3165 3164 3164 3164 3163 3163 3163 3162 3162 3161 3161 3160 3160 3159 3159 3158 3158 3158 3157 3156 3156 3155 3155 3154 3154 3153 3153 3153 3152 3152 3151 3151 3150 3149 3149 3148 3148 3148 3148 3147 3147 3147 3146 3146 3145 3145 3145 3144 3144 3143 3143 3142 3142
3173 3173 3173 3173 3173 3173 3173 3173 3173 3173 3173 3173 3173 3173 3173 3173 3173 3173 3173 3173 3172 3172 3172 3172 3171 3171 3171 3171 3170 3170 3170 3170 3169 3169 3169 3168 3168 3168 3168 3168 3167 3167 3167 3166 3166 3165 3165 3165 3164 3164 3163 3163 3163 3163 3162 3162 3161 3161 3160 3160 3159 3159 3158 3158 3158 3157 3157 3156 3156 3155 3155 3154 3153 3153 3153 3152 3152 3151 3151 3150 3149 3149 3148 3148 3147 3147 3146 3146 3145 3145 3145 3144 3144 3143 3143 3143 3143 3142 3142 3141 3141 3140 3140
3172 3172 3172 3172 3172 3172 3172 3172 3172 3172 3172 3172 3172 3172 3172 3172 3172 3172 3171 3171 3171 3171 3171 3170 3170 3170 3169 3169 3169 3169 3168 3168 3168 3168 3168 3167 3167 3167 3166 3166 3166 3165 3165 3165 3164 3164 3164 3163 3163 3163 3162 3162 3162 3161 3161 3160 3160 3159 3159 3158 3158 3158 3157 3157 3156 3156 3155 3155 3154 3154 3153 3153 3152 3152 3151 3151 3150 3150 3149 3148 3148 3147 3147 3146 3146 3145 3144 3144 3143 3143 3143 3142 3142 3142 3141 3141 3140 3140 3140 3139 3138 3138 3138
3171 3171 3171 3171 3171 3171 3171 3171 3171 3171 3171 3171 3171 3171 3171 3171 3170 3170 3170 3170 3170 3169 3169 3169 3169 3168 3168 3168 3168 3167 3167 3167 3167 3166 3166 3166 3166 3165 3165 3165 3164 3164 3164 3163 3163 3163 3162 3162 3161 3161 3161 3160 3160 3159 3159 3159 3158 3158 3158 3157 3156 3156 3155 3155 3154 3154 3153 3153 3153 3152 3152 3151 3151 3150 3150 3149 3148 3148 3148 3147 3146 3146 3145 3144 3144 3143 3143 3142 3142 3141 3141 3140 3140 3139 3139 3138 3138 3138 3137 3137 3136 3136 3135
3170 3170 3170 3170 3170 3170 3170 3170 3170 3170 3170 3170 3170 3169 3169 3169 3169 3169 3169 3168 3168 3168 3168 3168 3167 3167 3167 3167 3166 3166 3166 3165 3165 3165 3164 3164 3164 3164 3163 3163 3163 3163 3162 3162 3162 3161 3161 3160 3160 3159 3159 3158 3158 3158 3158 3157 3157 3156 3156 3155 3155 3154 3154 3153 3153 3152 3152 3152 3151 3151 3150 3150 3149 3148 3148 3148 3147 3146 3146 3145 3145 3144 3143 3143 3142 3141 3141 3140 3139 3139 3138 3138 3138 3137 3137 3136 3135 3135 3135 3134 3134 3133 3133
3169 3169 3169 3169 3169 3169 3169 3169 3169 3169 3169 3169 3168 3168 3168 3168 3168 3168 3168 3167 3167 3167 3167 3166 3166 3166 3165 3165 3165 3164 3164 3164 3163 3163 3163 3163 3162 3162 3162 3161 3161 3161 3161 3160 3160 3159 3159 3159 3158 3158 3157 3157 3157 3156 3156 3155 3155 3154 3154 3154 3153 3153 3152 3152 3151 3151 3150 3150 3149 3149 3148 3148 3148 3147 3146 3146 3145 3145 3144 3143 3143 3142 3142 3141 3140 3140 3139 3138 3138 3137 3136 3136 3135 3135 3134 3134 3133 3133 3132 3132 3131 3130 3130
3168 3168 3168 3168 3168 3168 3168 3168 3168 3168 3168 3168 3167 3167 3167 3167 3166 3166 3166 3166 3166 3165 3165 3165 3164 3164 3164 3163 3163 3163 3163 3162 3162 3162 3161 3161 3161 3160 3160 3160 3159 3159 3159 3158 3158 3158 3158 3157 3157 3156 3156 3155 3155 3154 3154 3153 3153 3153 3152 3152 3151 3151 3150 3150 3149 3149 3148 3148 3148 3147 3147 3146 3146 3145 3145 3144 3143 3143 3142 3142 3141 3141 3140 3139 3138 3138 3137 3136 3136 3135 3134 3133 3133 3133 3132 3131 3131 3130 3130 3129 3128 3128 3128
3167 3167 3167 3167 3167 3167 3167 3167 3166 3166 3166 3166 3166 3166 3165 3165 3165 3165 3165 3164 3164 3164 3163 3163 3163 3162 3162 3162 3161 3161 3161 3161 3160 3160 3160 3159 3159 3158 3158 3158 3158 3157 3157 3157 3156 3156 3156 3155 3155 3154 3154 3153 3153 3153 3152 3152 3151 3151 3150 3150 3149 3149 3148 3148 3148 3147 3147 3146 3146 3145 3145 3144 3144 3143 3143 3142 3142 3141 3141 3140 3139 3139 3138 3138 3137 3136 3135 3134 3133 3133 3132 3131 3131 3130 3129 3129 3128 3128 3127 3127 3126 3125 3124
3165 3165 3165 3165 3165 3165 3165 3165 3165 3165 3165 3165 3165 3164 3164 3164 3163 3163 3163 3163 3163 3162 3162 3162 3161 3161 3160 3160 3160 3159 3159 3159 3159 3158 3158 3158 3157 3157 3157 3156 3156 3155 3155 3155 3154 3154 3154 3153 3153 3153 3152 3152 3151 3151 3150 3150 3149 3149 3148 3148 3148 3147 3146 3146 3145 3145 3145 3144 3144 3143 3143 3142 3142 3141 3141 3140 3140 3139 3138 3138 3138 3137 3136 3136 3135 3134 3133 3132 3132 3131 3130 3129 3128 3128 3127 3127 3126 3125 3125 3124 3123 3123 3122
3164 3164 3164 3164 3164 3164 3164 3164 3163 3163 3163 3163 3163 3163 3163 3162 3162 3162 3161 3161 3161 3161 3160 3160 3159 3159 3158 3158 3158 3158 3157 3157 3157 3157 3156 3156 3155 3155 3155 3154 3154 3154 3153 3153 3153 3152 3152 3152 3151 3151 3150 3150 3149 3149 3148 3148 3148 3147 3147 3146 3145 3145 3144 3144 3143 3143 3143 3142 3142 3141 3141 3140 3140 3139 3139 3138 3138 3137 3137 3136 3135 3135 3134 3134 3133 3132 3131 3130 3130 3129 3128 3127 3127 3126 3125 3124 3123 3123 3122 3121 3121 3120 3119
3163 3163 3162 3162 3162 3162 3162 3162 3162 3162 3162 3162 3162 3161 3161 3161 3160 3160 3160 3159 3159 3159 3158 3158 3158 3157 3157 3157 3156 3156 3156 3155 3155 3155 3154 3154 3154 3153 3153 3153 3153 3152 3152 3151 3151 3150 3150 3149 3149 3149 3148 3148 3148 3147 3147 3146 3146 3145 3145 3144 3143 3143 3143 3142 3141 3141 3140 3140 3139 3139 3138 3138 3138 3137 3137 3136 3136 3135 3134 3134 3133 3133 3132 3132 3131 3130 3129 3128 3128 3127 3126 3125 3124 3124 3123 3122 3121 3121 3120 3119 3118 3117 3117
3161 3161 3161 3161 3161 3161 3161 3160 3160 3160 3160 3160 3160 3160 3159 3159 3159 3158 3158 3158 3158 3157 3157 3156 3156 3156 3155 3155 3154 3154 3154 3153 3153 3153 3153 3152 3152 3152 3151 3151 3151 3150 3150 3149 3149 3148 3148 3148 3147 3147 3146 3146 3146 3145 3145 3144 3144 3143 3143 3142 3142 3141 3140 3140 3139 3138 3138 3138 3137 3137 3136 3136 3135 3135 3135 3134 3133 3133 3133 3132 3131 3131 3130 3130 3129 3128 3127 3127 3126 3125 3124 3123 3122 3122 3121 3120 3119 3118 3118 3117 3116 3115 3114
3160 3159 3159 3159 3159 3159 3159 3159 3159 3158 3158 3158 3158 3158 3158 3157 3157 3157 3157 3156 3156 3155 3155 3155 3154 3154 3153 3153 3153 3152 3152 3152 3151 3151 3151 3150 3150 3150 3149 3149 3149 3148 3148 3148 3147 3147 3146 3146 3145 3145 3144 3144 3143 3143 3143 3142 3142 3141 3141 3140 3139 3139 3138 3138 3137 3136 3136 3135 3135 3134 3134 3133 3133 3133 3132 3132 3132 3131 3130 3130 3129 3128 3128 3127 3127 3126 3125 3124 3123 3123 3122 3121 3120 3119 3118 3118 3117 3116 3115 3114 3113 3113 3112
3158 3158 3158 3158 3158 3158 3158 3157 3157 3157 3157 3156 3156 3156 3156 3155 3155 3155 3155 3154 3154 3154 3153 3153 3152 3152 3152 3151 3151 3150 3150 3150 3149 3149 3149 3148 3148 3148 3147 3147 3147 3146 3146 3146 3145 3145 3144 3144 3143 3143 3142 3142 3141 3141 3140 3140 3139 3139 3138 3138 3137 3137 3136 3136 3135 3134 3134 3133 3133 3132 3132 3131 3131 3130 3130 3129 3129 3129 3128 3128 3127 3126 3126 3125 3124 3123 3123 3122 3121 3120 3119 3119 3118 3117 3116 3115 3115 3114 3113 3112 3111 3110 3109
3157 3157 3156 3156 3156 3156 3156 3156 3155 3155 3155 3154 3154 3154 3154 3153 3153 3153 3153 3153 3152 3152 3151 3151 3150 3150 3149 3149 3149 3148 3148 3148 3148 3147 3147 3147 3146 3146 3145 3145 3144 3144 3144 3143 3143 3143 3142 3142 3141 3141 3140 3140 3139 3139 3138 3138 3137 3137 3136 3136 3135 3134 3134 3133 3133 3132 3132 3131 3130 3130 3129 3128 3128 3128 3127 3127 3127 3126 3126 3125 3125 3124 3123 3123 3122 3121 3120 3120 3119 3118 3117 3116 3115 3115 3114 3113 3112 3111 3111 3110 3109 3108 3107
3155 3155 3155 3154 3154 3154 3154 3154 3154 3153 3153 3153 3152 3152 3152 3151 3151 3151 3151 3151 3150 3150 3149 3149 3148 3148 3148 3147 3147 3147 3146 3146 3145 3145 3145 3144 3144 3143 3143 3143 3142 3142 3141 3141 3141 3140 3140 3139 3139 3138 3138 3137 3137 3136 3136 3136 3135 3134 3134 3133 3133 3132 3132 3131 3130 3130 3129 3128 3128 3127 3127 3126 3126 3125 3125 3124 3124 3123 3123 3123 3122 3121 3121 3120 3119 3119 3118 3117 3117 3116 3115 3114 3113 3112 3111 3110 3109 3109 3108 3107 3106 3106 3104
3153 3153 3153 3153 3153 3153 3152 3152 3152 3151 3151 3150 3150 3150 3149 3149 3149 3149 3149 3148 3148 3148 3147 3147 3146 3146 3146 3145 3145 3145 3144 3144 3143 3143 3143 3143 3142 3141 3141 3140 3140 3139 3139 3138 3138 3138 3137 3137 3136 3136 3135 3135 3134 3134 3133 3133 3133 3132 3132 3131 3130 3129 3129 3128 3128 3127 3127 3126 3125 3125 3124 3124 3123 3123 3122 3122 3121 3121 3120 3120 3119 3118 3118 3117 3117 3116 3115 3115 3114 3113 3113 3112 3111 3110 3109 3108 3107 3106 3105 3105 3104 3103 3102
3151 3151 3151 3151 3151 3151 3150 3150 3150 3149 3149 3148 3148 3148 3147 3147 3147 3146 3146 3146 3146 3146 3145 3145 3144 3144 3143 3143 3143 3143 3142 3142 3141 3141 3141 3140 3139 3139 3138 3138 3138 3137 3137 3136 3136 3135 3135 3134 3134 3133 3133 3132 3132 3132 3131 3131 3130 3130 3129 3128 3128 3127 3126 3126 3125 3124 3124 3123 3123 3122 3122 3121 3121 3120 3119 3119 3118 3118 3117 3117 3116 3116 3115 3114 3114 3113 3113 3112 3111 3111 3110 3109 3108 3108 3107 3105 3104 3103 3103 3102 3101 3101 3100
3149 3149 3149 3149 3149 3149 3148 3148 3148 3147 3147 3146 3146 3145 3145 3144 3144 3144 3144 3144 3143 3143 3143 3142 3142 3142 3142 3141 3141 3141 3140 3139 3139 3138 3138 3138 3137 3137 3136 3136 3135 3134 3134 3134 3133 3133 3133 3132 3131 3131 3130 3130 3129 3129 3128 3128 3128 3127 3127 3126 3125 3124 3123 3123 3122 3122 3121 3120 3120 3119 3119 3118 3118 3118 3117 3116 3116 3115 3114 3114 3113 3113 3112 3111 3111 3110 3110 3109 3109 3108 3107 3107 3106 3105 3104 3103 3102 3101 3100 3099 3099 3098 3097
3147 3147 3147 3147 3147 3147 3147 3146 3146 3145 3144 3144 3143 3143 3143 3142 3142 3142 3141 3141 3141 3141 3140 3140 3140 3139 3139 3139 3139 3138 3138 3137 3137 3136 3136 3135 3134 3134 3133 3133 3132 3132 3132 3131 3131 3130 3130 3129 3129 3128 3128 3127 3127 3126 3126 3126 3125 3124 3124 3123 3123 3122 3121 3120 3119 3119 3118 3118 3117 3117 3116 3116 3115 3115 3114 3113 3113 3112 3112 3111 3110 3110 3109 3108 3108 3108 3107 3106 3106 3105 3104 3104 3103 3103 3102 3101 3100 3099 3098 3097 3096 3095 3095
3144 3144 3144 3144 3144 3144 3144 3144 3143 3143 3142 3142 3141 3141 3141 3140 3140 3139 3139 3139 3138 3138 3138 3138 3137 3137 3137 3137 3136 3136 3135 3135 3134 3134 3133 3133 3132 3132 3131 3130 3130 3129 3129 3129 3128 3128 3128 3127 3126 3126 3125 3125 3124 3124 3123 3123 3123 3122 3121 3120 3120 3119 3118 3118 3117 3116 3115 3115 3114 3113 3113 3113 3112 3112 3111 3110 3110 3109 3109 3108 3108 3107 3106 3106 3105 3105 3104 3103 3103 3102 3102 3101 3100 3100 3099 3098 3098 3096 3095 3094 3094 3093 3092
3142 3142 3142 3142 3142 3142 3142 3142 3141 3141 3140 3140 3139 3139 3138 3138 3138 3137 3137 3136 3136 3136 3135 3135 3135 3135 3134 3134 3134 3133 3133 3132 3132 3131 3131 3130 3130 3129 3128 3128 3127 3127 3127 3126 3126 3125 3125 3124 3123 3123 3123 3122 3122 3121 3121 3120 3120 3119 3118 3118 3117 3117 3116 3115 3114 3113 3113 3112 3111 3111 3110 3110 3109 3108 3108 3108 3107 3106 3106 3105 3105 3104 3104 3103 3103 3102 3101 3101 3100 3099 3099 3098 3098 3097 3096 3096 3095 3094 3093 3092 3091 3090 3090
3140 3140 3140 3140 3140 3140 3139 3139 3139 3138 3138 3137 3137 3137 3136 3136 3135 3135 3134 3134 3133 3133 3133 3132 3132 3132 3132 3132 3131 3130 3130 3129 3129 3129 3128 3128 3127 3126 3126 3125 3124 3124 3124 3123 3123 3123 3122 3122 3121 3120 3120 3119 3119 3118 3118 3118 3117 3116 3116 3115 3114 3114 3113 3113 3112 3111 3110 3109 3108 3108 3107 3107 3106 3106 3105 3104 3104 3103 3103 3102 3102 3101 3101 3100 3100 3099 3098 3098 3097 3097 3096 3095 3095 3094 3093 3093 3092 3091 3090 3089 3088 3088 3087
3138 3138 3137 3137 3137 3137 3137 3137 3136 3136 3135 3135 3134 3134 3134 3133 3133 3133 3132 3132 3131 3131 3130 3130 3129 3129 3129 3128 3128 3128 3127 3127 3126 3126 3125 3125 3124 3123 3123 3122 3122 3122 3121 3121 3120 3120 3119 3119 3118 3118 3117 3116 3116 3116 3115 3115 3114 3113 3113 3112 3112 3111 3111 3110 3109 3108 3108 3107 3106 3105 3104 3104 3103 3103 3102 3101 3101 3100 3100 3099 3099 3098 3098 3098 3097 3096 3095 3095 3094 3093 3093 3092 3092 3091 3090 3090 3089 3088 3088 3087 3086 3085 3084
3135 3135 3135 3135 3135 3134 3134 3134 3133 3133 3133 3132 3132 3132 3131 3131 3131 3130 3130 3129 3129 3128 3128 3127 3127 3126 3126 3125 3125 3124 3124 3124 3123 3123 3122 3122 3121 3121 3120 3119 3119 3119 3118 3118 3117 3117 3117 3116 3115 3114 3114 3113 3113 3113 3113 3112 3111 3111 3110 3109 3109 3108 3108 3107 3107 3106 3105 3104 3103 3103 3102 3101 3100 3100 3099 3098 3098 3097 3097 3096 3096 3095 3095 3094 3094 3093 3093 3092 3091 3090 3090 3089 3088 3088 3088 3087 3086 3086 3085 3084 3083 3082 3081
3133 3133 3133 3132 3132 3132 3132 3131 3131 3130 3130 3130 3129 3129 3128 3128 3128 3128 3127 3127 3126 3126 3125 3124 3123 3123 3122 3122 3122 3121 3121 3121 3120 3120 3119 3118 3118 3118 3117 3117 3116 3116 3115 3115 3114 3114 3113 3113 3112 3112 3111 3111 3110 3110 3110 3109 3108 3108 3107 3106 3106 3105 3105 3104 3104 3103 3102 3101 3101 3100 3099 3098 3098 3097 3096 3095 3095 3094 3093 3093 3093 3092 3092 3091 3091 3090 3089 3089 3088 3087 3087 3086 3085 3085 3084 3083 3083 3083 3082 3081 3080 3079 3078
3130 3130 3130 3130 3129 3129 3129 3128 3128 3128 3127 3127 3126 3126 3126 3125 3125 3125 3124 3123 3123 3123 3122 3121 3121 3120 3119 3118 3118 3118 3118 3118 3117 3116 3116 3115 3114 3114 3113 3113 3113 3113 3112 3112 3111 3111 3110 3110 3109 3108 3108 3108 3107 3107 3107 3106 3105 3104 3104 3103 3103 3102 3102 3101 3101 3100 3099 3098 3098 3097 3096 3095 3095 3094 3093 3092 3092 3091 3090 3090 3089 3089 3088 3088 3088 3087 3086 3086 3085 3084 3083 3083 3082 3082 3081 3080 3080 3079 3078 3078 3077 3076 3075
3128 3127 3127 3127 3127 3127 3126 3126 3125 3125 3124 3124 3123 3123 3123 3123 3122 3122 3121 3120 3120 3119 3118 3118 3117 3116 3116 3115 3115 3114 3114 3114 3113 3113 3112 3111 3111 3110 3110 3110 3110 3109 3109 3108 3108 3108 3107 3106 3106 3105 3105 3104 3104 3104 3103 3103 3102 3101 3101 3100 3099 3099 3098 3098 3098 3097 3096 3095 3095 3094 3093 3093 3092 3091 3090 3089 3088 3088 3087 3086 3086 3085 3085 3085 3084 3084 3083 3082 3082 3081 3080 3080 3079 3078 3078 3077 3077 3076 3075 3075 3074 3073 3073
3125 3125 3124 3124 3124 3124 3123 3123 3122 3122 3121 3121 3120 3120 3120 3119 3119 3118 3118 3117 3116 3116 3115 3115 3114 3113 3113 3112 3112 3111 3111 3111 3110 3109 3108 3108 3107 3106 3106 3106 3106 3106 3105 3105 3104 3104 3103 3103 3102 3102 3102 3101 3101 3101 3100 3100 3099 3098 3098 3097 3096 3096 3095 3095 3094 3094 3093 3092 3092 3091 3090 3089 3089 3088 3087 3086 3085 3084 3084 3083 3083 3082 3082 3081 3081 3080 3080 3079 3078 3078 3077 3076 3076 3075 3075 3074 3074 3073 3073 3072 3071 3071 3070
3123 3122 3122 3122 3121 3121 3120 3120 3119 3118 3118 3118 3117 3117 3117 3116 3115 3114 3114 3113 3113 3112 3112 3111 3110 3110 3109 3109 3108 3108 3108 3107 3106 3105 3104 3103 3103 3103 3103 3102 3102 3102 3102 3101 3100 3100 3099 3098 3098 3098 3098 3098 3097 3097 3097 3096 3095 3095 3094 3094 3093 3093 3092 3092 3091 3090 3089 3089 3088 3088 3087 3086 3086 3085 3084 3083 3082 3082 3081 3080 3079 3079 3078 3078 3078 3077 3077 3076 3075 3074 3073 3073 3072 3072 3071 3071 3070 3070 3069 3069 3068 3068 3067
3120 3119 3119 3118 3118 3118 3117 3117 3116 3115 3115 3114 3114 3113 3113 3113 3112 3111 3111 3110 3110 3109 3109 3108 3107 3107 3106 3106 3105 3105 3104 3103 3103 3102 3100 3099 3099 3099 3099 3098 3098 3097 3097 3097 3096 3095 3095 3094 3094 3094 3094 3094 3093 3093 3093 3092 3092 3091 3091 3090 3089 3089 3089 3088 3088 3087 3086 3085 3085 3084 3084 3083 3082 3082 3081 3080 3079 3078 3078 3077 3076 3076 3075 3075 3074 3074 3073 3073 3072 3071 3070 3069 3069 3068 3068 3068 3067 3067 3066 3066 3065 3065 3064
3117 3116 3116 3115 3115 3114 3114 3113 3113 3112 3112 3111 3111 3110 3110 3109 3108 3108 3108 3107 3107 3106 3105 3105 3104 3103 3103 3102 3102 3102 3101 3100 3099 3098 3096 3096 3096 3095 3095 3095 3093 3093 3092 3092 3092 3091 3090 3090 3090 3090 3090 3090 3089 3089 3088 3088 3087 3087 3087 3086 3086 3086 3085 3085 3084 3083 3083 3082 3082 3081 3081 3080 3079 3078 3078 3077 3076 3075 3075 3074 3073 3073 3072 3072 3071 3071 3070 3069 3068 3068 3067 3066 3065 3065 3064 3064 3063 3063 3063 3063 3062 3062 3061
3114 3113 3113 3113 3112 3112 3111 3111 3110 3109 3109 3108 3108 3107 3107 3106 3106 3105 3105 3104 3104 3103 3102 3101 3101 3100 3099 3098 3098 3099 3098 3097 3096 3094 3093 3093 3093 3092 3090 3090 3089 3088 3088 3088 3088 3087 3086 3085 3085 3086 3086 3085 3085 3084 3084 3083 3083 3082 3082 3082 3082 3082 3082 3081 3081 3080 3079 3079 3078 3078 3078 3077 3076 3075 3074 3074 3073 3073 3072 3071 3070 3070 3069 3069 3068 3068 3067 3066 3065 3064 3063 3063 3062 3062 3061 3060 3060 3059 3059 3059 3059 3058 3058
3112 3111 3111 3110 3110 3109 3109 3108 3107 3107 3106 3105 3105 3104 3104 3103 3103 3102 3102 3101 3101 3100 3099 3098 3098 3097 3096 3095 3095 3095 3094 3093 3092 3091 3090 3089 3089 3088 3087 3085 3084 3084 3085 3084 3083 3083 3082 3081 3081 3082 3081 3081 3080 3079 3079 3078 3078 3078 3078 3078 3078 3078 3078 3077 3077 3076 3076 3076 3075 3075 3074 3073 3072 3072 3071 3071 3070 3069 3068 3068 3067 3067 3066 3066 3065 3064 3064 3063 3062 3061 3060 3060 3059 3058 3058 3057 3056 3056 3056 3055 3055 3055 3054
3110 3109 3108 3108 3107 3107 3106 3105 3105 3104 3103 3103 3102 3102 3101 3100 3100 3099 3099 3098 3098 3097 3096 3095 3094 3093 3092 3092 3092 3091 3091 3090 3089 3088 3087 3086 3085 3084 3083 3082 3080 3080 3081 3079 3077 3077 3079 3078 3077 3077 3077 3076 3075 3075 3074 3074 3073 3073 3073 3073 3073 3073 3073 3073 3073 3072 3072 3072 3072 3072 3071 3070 3069 3068 3068 3068 3067 3066 3065 3065 3064 3063 3063 3062 3062 3061 3061 3060 3059 3058 3057 3057 3056 3055 3054 3053 3053 3053 3052 3052 3052 3051 3051
3107 3106 3106 3105 3104 3103 3103 3102 3102 3101 3100 3099 3098 3098 3098 3097 3097 3096 3096 3095 3094 3093 3093 3092 3091 3090 3089 3088 3088 3088 3087 3086 3085 3085 3084 3083 3082 3081 3079 3078 3077 3076 3076 3074 3071 3070 3073 3074 3073 3072 3073 3073 3071 3070 3070 3069 3069 3069 3069 3068 3068 3069 3069 3069 3068 3068 3068 3068 3068 3068 3067 3066 3066 3065 3065 3064 3064 3063 3062 3061 3060 3060 3059 3059 3058 3058 3057 3057 3056 3055 3054 3053 3053 3052 3051 3050 3050 3049 3049 3048 3048 3048 3047
3104 3103 3103 3102 3101 3100 3099 3099 3098 3098 3097 3096 3095 3095 3094 3094 3093 3093 3092 3092 3091 3090 3090 3089 3088 3087 3086 3085 3085 3084 3083 3083 3082 3082 3081 3080 3079 3077 3076 3075 3074 3073 3071 3069 3067 3065 3067 3069 3068 3066 3067 3068 3067 3065 3065 3065 3065 3064 3064 3064 3064 3065 3065 3065 3065 3065 3065 3065 3064 3064 3063 3063 3063 3062 3062 3061 3060 3060 3059 3058 3057 3056 3056 3055 3055 3055 3054 3053 3053 3052 3051 3050 3049 3048 3048 3047 3046 3046 3045 3045 3044 3044 3043
3101 3100 3099 3098 3098 3097 3096 3095 3095 3094 3093 3093 3092 3092 3091 3091 3090 3090 3089 3088 3088 3087 3087 3086 3085 3084 3083 3083 3082 3081 3080 3079 3079 3078 3078 3077 3076 3074 3073 3071 3070 3069 3067 3065 3064 3063 3062 3061 3060 3060 3061 3062 3061 3059 3060 3061 3060 3060 3060 3060 3060 3061 3061 3061 3061 3061 3061 3061 3061 3060 3060 3059 3059 3059 3058 3058 3057 3056 3056 3055 3054 3053 3052 3052 3052 3051 3050 3050 3049 3048 3048 3047 3046 3045 3044 3044 3043 3042 3042 3041 3041 3040 3040
3098 3097 3096 3095 3094 3094 3093 3092 3092 3091 3090 3089 3089 3088 3088 3088 3087 3087 3086 3086 3085 3084 3083 3083 3082 3082 3081 3080 3078 3077 3077 3076 3076 3075 3074 3073 3072 3071 3069 3068 3067 3065 3063 3062 3061 3060 3058 3056 3055 3054 3055 3056 3055 3055 3055 3055 3055 3055 3055 3055 3056 3056 3056 3057 3057 3057 3058 3058 3057 3057 3056 3056 3055 3055 3055 3054 3054 3053 3052 3051 3050 3049 3049 3048 3048 3047 3047 3046 3045 3045 3044 3043 3043 3042 3041 3040 3040 3039 3038 3038 3038 3037 3037
3094 3094 3093 3092 3091 3091 3090 3089 3088 3088 3087 3087 3086 3085 3085 3085 3084 3084 3083 3083 3082 3081 3080 3080 3079 3078 3078 3077 3075 3074 3073 3073 3072 3071 3069 3068 3068 3067 3066 3065 3063 3061 3059 3058 3057 3056 3054 3053 3051 3050 3049 3049 3049 3050 3050 3050 3050 3050 3051 3051 3051 3051 3052 3052 3053 3053 3054 3054 3053 3053 3053 3052 3052 3052 3051 3051 3050 3050 3049 3048 3047 3046 3045 3045 3044 3043 3043 3042 3042 3041 3040 3040 3039 3039 3038 3037 3036 3036 3035 3035 3034 3034 3033
3092 3091 3090 3089 3088 3088 3087 3086 3085 3085 3084 3084 3083 3083 3082 3082 3082 3081 3080 3080 3079 3078 3077 3077 3076 3075 3074 3073 3072 3071 3070 3070 3068 3067 3065 3063 3063 3063 3062 3061 3059 3058 3056 3054 3053 3051 3050 3048 3048 3047 3046 3044 3044 3045 3045 3044 3044 3045 3045 3046 3046 3046 3047 3048 3049 3050 3050 3050 3050 3049 3049 3049 3048 3048 3048 3047 3047 3046 3046 3045 3044 3043 3042 3042 3040 3039 3039 3038 3038 3037 3037 3036 3036 3035 3034 3034 3033 3033 3032 3032 3031 3031 3030
3089 3088 3088 3087 3086 3085 3084 3083 3083 3082 3082 3081 3080 3080 3080 3080 3079 3078 3077 3077 3076 3075 3074 3073 3073 3072 3071 3069 3068 3067 3067 3066 3065 3063 3061 3059 3059 3058 3058 3056 3055 3054 3053 3051 3050 3048 3046 3045 3044 3043 3042 3040 3039 3040 3041 3041 3040 3040 3040 3041 3042 3042 3043 3043 3045 3046 3046 3046 3046 3046 3045 3045 3045 3044 3044 3044 3043 3043 3042 3042 3041 3040 3039 3038 3037 3036 3035 3034 3034 3033 3033 3033 3032 3031 3031 3030 3030 3029 3029 3028 3028 3028 3028
3087 3086 3085 3084 3083 3083 3082 3081 3080 3080 3079 3078 3078 3077 3077 3077 3076 3075 3074 3073 3073 3071 3070 3069 3069 3068 3067 3066 3064 3063 3063 3062 3061 3059 3058 3056 3055 3054 3053 3051 3050 3050 3049 3048 3047 3045 3043 3042 3041 3039 3038 3037 3036 3035 3035 3037 3037 3036 3036 3037 3038 3038 3038 3039 3041 3042 3042 3042 3042 3042 3041 3041 3041 3041 3041 3040 3040 3040 3039 3038 3037 3036 3035 3034 3033 3032 3032 3031 3031 3030 3030 3029 3028 3028 3027 3027 3026 3026 3025 3025 3025 3024 3024